Weather in Ust-Olenek

Russia / Sakha (Yakutia) Republic     72°59′10″N   119°49′06″E
temp.,
°C
wind,
m/s
gust,
m/s
humid.,
%
clouds,
%
prec.,
mm/h
press.,
hPa
HPBL,
m
19 may, wed
wed1900:00−1ene71291100 0.1 1011417
03:00−1ne61090100 0.1 1012427
06:00−2ne71091100 0.1 1013604
09:00−1ne7885100 0.1 1014806
12:00−1ne6785100 0.0 1014573
15:00−1ne6786100 0.1 1015603
18:00−1ne5787100 0.1 1015594
21:00−1nne5791100 0.3 1016428
20 may, thu
thu2000:00−2nne4795100 0.1 1016189
03:00−3n369199 0.2 1016108
06:00−4n479783 0.1 1016169
09:00−2n569399 0.3 1016471
12:00−1n4593100 0.4 1017493
15:00−1nne458880 0.6 1017492
18:00−1n348799 0.1 1017472
21:00−1n3490100 0.1 1018348
21 may, fri
fri2100:00−2nne2289100 0.1 101834
03:00−3n2393100 0.1 101866
06:00−3nne3491100 0.1 1018323
09:00−2n348199 0.1 1019679
12:00−2nnw3479100 0.1 1019633
15:00−2nnw347998 0.1 1018611
18:00−1nnw337999 0.1 1018581
21:00−2nw2386100 0.1 1018239
22 may, sat
sat2200:00−3wnw2288100 0.1 101823
03:00−4w1191100 0.1 101814
06:00−4wsw129299 0.1 101786
09:00−3ssw229089 0.1 1016234
12:00−3ssw348871 0.0 1015426
15:00−3s458616 0.0 1014440
18:00−3sse46895 0.0 1013342
21:00−7se339612 0.0 101129
23 may, sun
sun2300:00−10sse33955 0.0 101024
03:00−9sse45897 0.0 100848
06:00−6sse51186100 0.0 1006142
09:00−1se61383100 0.0 1004304
12:00+1se6128195 0.0 1001304
15:00+1se4890100 0.0 1000177
18:00+1sse51098100 0.6 998292
21:00+2sse5999100 1.3 996324